User: anonymous   Login
Location: Kuppenheim
(48.8299°N, 8.2568°E)
Time: 10:03:47
(UTC+00:00)
Language:

USA 229 DEB - Orbit

View from above orbital plane
View from above orbital plane
View from above satellite
View from above satellite

Ground track
Ground track

The orbit data is extracted from the following two-line orbital elements,

1 37391U 11014B   21264.15983164 0.00000000  00000-0  00000-0 0    05
2 37391  63.4479  12.9520 0205857 357.4481   2.5519 13.40813348    03
Epoch (UTC): 21 September 2021 03:50:09
Eccentricity: 0.0205857
inclination: 63.4479°
perigee height: 952 km
apogee height: 1260 km
right ascension of ascending node: 12.9520°
argument of perigee: 357.4481°
revolutions per day: 13.40813348
mean anomaly at epoch: 2.5519°
orbit number at epoch: 0

The dashed part of the orbit path shows where the satellite is in the earth's shadow,  

DLR